星链-33926 (STARLINK-33926)

导读

STARLINK-33926是美国SpaceX星链互联网星座中的一颗卫星,于2025年5月27日发射入轨,隶属于美国太空探索技术公司打造的星链网络。该卫星延续星链星座低轨部署的技术路线,承担全球范围卫星互联网通信覆盖任务,助力星链完成全球高速互联网服务的组网布局,拓展全球卫星通信服务的覆盖范围。

基本信息
目录编号:
64147
目录名称:
STARLINK-33926
国际标识:
2025-112B
轨道中心:
EARTH
卫星名称:
星链-33926
卫星全名:
星链-33926 (STARLINK-33926)
卫星状态:
在轨 (已飞行383 天)
发射日期:
2025-05-27 UTC
国别 :
美国 (US)
星等 :
--
轨道信息
数据来源 国际轨道数据
星历时间: 2026-06-14T00:13:51+0800
11小时前
查看轨道信息
半长轴: 6927.628km
偏心率: 0.0001194
轨道倾角: 97.364°
近地点辐角 129.048°
升交点赤经 215.294°
平近点角 231.085°
近地点: 548.663km
远地点: 550.319km
周期: 95.639分钟
每日圈数: 15.056566
详细信息
固有亮度:
5
最大亮度:
2.5
卫星平台:
Starlink V1.0
覆盖范围:
全球
运营商:
太空探索技术公司
运营商所在国:
美国
制造商(研发单位):
太空探索技术公司
制造商所在国:
美国
使用方式:
暂无
卫星简介
Starlink 计划是 SpaceX 推出的全球卫星互联网项目,通过发射低轨道卫星,为全球尤其是偏远地区提供高速、低延迟的互联网服务。自 2019 年起,Starlink 已部署数千颗卫星,旨在缩小全球数字鸿沟,推动互联网普及。该项目还为军事、航空等行业提供通信支持,带来广泛经济效益。
2D轨道图
3D轨道图
轨道高度分析图
轨道倾角分析图
轨道综合分析图
查看轨道综合分析图